Time,TemperatureF,DewpointF,PressureIn,WindDirection,WindDirectionDegrees,WindSpeedMPH,WindSpeedGustMPH,Humidity,HourlyPrecipIn,Conditions,Clouds,dailyrainin,SoftwareType,DateUTC
2013-03-19 00:00:00,38.9,34.2,29.84,NNW,338,14.3,14.3,83,0.00,,,0.00,WUHU216HW,2013-03-19 04:00:00,
2013-03-19 00:05:00,38.9,33.8,29.84,WNW,293,16.1,16.1,82,0.00,,,0.00,WUHU216HW,2013-03-19 04:05:00,
2013-03-19 00:30:00,34.9,29.3,29.85,WNW,293,12.3,12.3,80,0.00,,,0.00,WUHU216HW,2013-03-19 04:30:00,
2013-03-19 00:35:00,34.9,29.3,29.85,NW,315,11.0,13.0,80,0.00,,,0.00,WUHU216HW,2013-03-19 04:35:00,
2013-03-19 00:40:00,34.9,29.3,29.85,NW,315,11.0,13.0,80,0.00,,,0.00,WUHU216HW,2013-03-19 04:40:00,
2013-03-19 01:00:00,33.5,27.3,29.86,NW,315,5.4,5.4,78,0.00,,,0.00,WUHU216HW,2013-03-19 05:00:00,
2013-03-19 01:05:00,33.3,27.1,29.86,NW,315,11.4,11.4,78,0.00,,,0.00,WUHU216HW,2013-03-19 05:05:00,
2013-03-19 01:10:00,33.3,27.1,29.86,NW,315,11.4,11.4,78,0.00,,,0.00,WUHU216HW,2013-03-19 05:10:00,
2013-03-19 01:30:00,32.0,26.0,29.86,NNW,338,9.4,9.4,78,0.00,,,0.00,WUHU216HW,2013-03-19 05:30:00,
2013-03-19 01:35:00,32.0,26.0,29.86,NW,315,6.3,9.4,78,0.00,,,0.00,WUHU216HW,2013-03-19 05:35:00,
2013-03-19 01:40:00,32.0,26.0,29.86,NW,315,6.3,9.4,78,0.00,,,0.00,WUHU216HW,2013-03-19 05:40:00,
2013-03-19 02:00:00,31.0,24.3,29.87,NW,315,9.6,9.6,76,0.00,,,0.00,WUHU216HW,2013-03-19 06:00:00,
2013-03-19 02:05:00,31.0,24.3,29.87,West,270,10.5,10.5,76,0.00,,,0.00,WUHU216HW,2013-03-19 06:05:00,
2013-03-19 02:10:00,31.0,24.3,29.87,West,270,10.5,10.5,76,0.00,,,0.00,WUHU216HW,2013-03-19 06:10:00,
2013-03-19 02:30:00,29.9,22.2,29.88,West,270,9.4,9.4,73,0.00,,,0.00,WUHU216HW,2013-03-19 06:30:00,
2013-03-19 02:35:00,30.1,22.4,29.88,West,270,20.4,20.4,73,0.00,,,0.00,WUHU216HW,2013-03-19 06:35:00,
2013-03-19 02:40:00,30.1,22.4,29.88,West,270,20.4,20.4,73,0.00,,,0.00,WUHU216HW,2013-03-19 06:40:00,
2013-03-19 03:00:00,29.2,20.3,29.90,WNW,293,11.0,11.0,69,0.00,,,0.00,WUHU216HW,2013-03-19 07:00:00,
2013-03-19 03:05:00,29.2,20.3,29.90,WNW,293,18.8,18.8,69,0.00,,,0.00,WUHU216HW,2013-03-19 07:05:00,
2013-03-19 03:10:00,29.2,20.3,29.90,WNW,293,18.8,18.8,69,0.00,,,0.00,WUHU216HW,2013-03-19 07:10:00,
2013-03-19 03:30:00,28.6,20.8,29.90,WNW,293,11.4,11.4,72,0.00,,,0.00,WUHU216HW,2013-03-19 07:30:00,
2013-03-19 03:35:00,28.6,20.8,29.90,West,270,20.1,20.1,72,0.00,,,0.00,WUHU216HW,2013-03-19 07:35:00,
2013-03-19 03:40:00,28.6,20.8,29.90,West,270,20.1,20.1,72,0.00,,,0.00,WUHU216HW,2013-03-19 07:40:00,
2013-03-19 04:00:00,27.9,19.4,29.91,WNW,293,8.5,8.5,70,0.00,,,0.00,WUHU216HW,2013-03-19 08:00:00,
2013-03-19 04:05:00,27.9,19.4,29.91,WSW,248,11.2,11.2,70,0.00,,,0.00,WUHU216HW,2013-03-19 08:05:00,
2013-03-19 04:10:00,27.9,19.4,29.91,WSW,248,11.2,11.2,70,0.00,,,0.00,WUHU216HW,2013-03-19 08:10:00,
2013-03-19 04:30:00,27.5,19.1,29.91,WSW,248,14.1,14.1,70,0.00,,,0.00,WUHU216HW,2013-03-19 08:30:00,
2013-03-19 04:35:00,27.5,19.4,29.91,WSW,248,14.1,14.1,71,0.00,,,0.00,WUHU216HW,2013-03-19 08:35:00,
2013-03-19 04:40:00,27.5,19.4,29.91,WSW,248,14.1,14.1,71,0.00,,,0.00,WUHU216HW,2013-03-19 08:40:00,
2013-03-19 05:00:00,26.6,18.2,29.91,SSW,203,10.7,10.7,70,0.00,,,0.00,WUHU216HW,2013-03-19 09:00:00,
2013-03-19 05:05:00,26.6,18.2,29.91,SW,225,15.7,15.7,70,0.00,,,0.00,WUHU216HW,2013-03-19 09:05:00,
2013-03-19 05:10:00,26.6,18.2,29.91,SW,225,15.7,15.7,70,0.00,,,0.00,WUHU216HW,2013-03-19 09:10:00,
2013-03-19 05:30:00,26.3,18.5,29.92,West,270,13.6,13.6,72,0.00,,,0.00,WUHU216HW,2013-03-19 09:30:00,
2013-03-19 05:35:00,26.3,18.5,29.93,WNW,293,14.8,14.8,72,0.00,,,0.00,WUHU216HW,2013-03-19 09:35:00,
2013-03-19 05:40:00,26.3,18.5,29.93,WNW,293,14.8,14.8,72,0.00,,,0.00,WUHU216HW,2013-03-19 09:40:00,
2013-03-19 06:00:00,26.8,19.0,29.93,WSW,248,18.6,18.6,72,0.00,,,0.00,WUHU216HW,2013-03-19 10:00:00,
2013-03-19 06:05:00,26.8,19.0,29.93,WSW,248,17.9,18.6,72,0.00,,,0.00,WUHU216HW,2013-03-19 10:05:00,
2013-03-19 06:10:00,26.8,19.0,29.93,WSW,248,17.9,18.6,72,0.00,,,0.00,WUHU216HW,2013-03-19 10:10:00,
2013-03-19 06:30:00,27.0,18.8,29.93,WSW,248,26.6,26.6,71,0.00,,,0.00,WUHU216HW,2013-03-19 10:30:00,
2013-03-19 06:35:00,27.0,18.8,29.93,WSW,248,17.7,26.6,71,0.00,,,0.00,WUHU216HW,2013-03-19 10:35:00,
2013-03-19 06:40:00,27.0,18.8,29.93,WSW,248,17.7,17.7,71,0.00,,,0.00,WUHU216HW,2013-03-19 10:40:00,
2013-03-19 07:00:00,27.0,18.8,29.93,WNW,293,14.8,14.8,71,0.00,,,0.00,WUHU216HW,2013-03-19 11:00:00,
2013-03-19 07:05:00,27.0,18.8,29.93,West,270,11.9,14.8,71,0.00,,,0.00,WUHU216HW,2013-03-19 11:05:00,
2013-03-19 07:10:00,27.0,18.8,29.93,West,270,11.9,14.8,71,0.00,,,0.00,WUHU216HW,2013-03-19 11:10:00,
2013-03-19 07:30:00,27.4,19.2,29.94,West,270,9.8,9.8,71,0.00,,,0.00,WUHU216HW,2013-03-19 11:30:00,
2013-03-19 07:35:00,27.4,19.5,29.94,WNW,293,17.2,17.2,72,0.00,,,0.00,WUHU216HW,2013-03-19 11:35:00,
2013-03-19 07:40:00,27.4,19.5,29.94,WNW,293,17.2,17.2,72,0.00,,,0.00,WUHU216HW,2013-03-19 11:40:00,
2013-03-19 08:00:00,27.2,19.0,29.94,WNW,293,12.8,12.8,71,0.00,,,0.00,WUHU216HW,2013-03-19 12:00:00,
2013-03-19 08:05:00,27.2,19.0,29.94,WNW,293,14.3,14.3,71,0.00,,,0.00,WUHU216HW,2013-03-19 12:05:00,
2013-03-19 08:10:00,27.2,19.0,29.94,WNW,293,14.3,14.3,71,0.00,,,0.00,WUHU216HW,2013-03-19 12:10:00,
2013-03-19 08:30:00,27.0,18.2,29.95,West,270,16.3,16.3,69,0.00,,,0.00,WUHU216HW,2013-03-19 12:30:00,
2013-03-19 08:35:00,27.0,18.2,29.95,NW,315,25.9,25.9,69,0.00,,,0.00,WUHU216HW,2013-03-19 12:35:00,
2013-03-19 08:40:00,27.0,18.2,29.95,NW,315,25.9,25.9,69,0.00,,,0.00,WUHU216HW,2013-03-19 12:40:00,
2013-03-19 09:00:00,27.2,18.7,29.95,WSW,248,11.9,11.9,70,0.00,,,0.00,WUHU216HW,2013-03-19 13:00:00,
2013-03-19 09:05:00,27.2,18.7,29.95,SW,225,9.8,11.9,70,0.00,,,0.00,WUHU216HW,2013-03-19 13:05:00,
2013-03-19 09:10:00,27.2,18.7,29.95,SW,225,9.8,10.5,70,0.00,,,0.00,WUHU216HW,2013-03-19 13:10:00,
2013-03-19 09:30:00,27.4,17.5,29.95,West,270,21.7,21.7,66,0.00,,,0.00,WUHU216HW,2013-03-19 13:30:00,
2013-03-19 09:35:00,27.5,17.6,29.95,NW,315,23.5,32.4,66,0.00,,,0.00,WUHU216HW,2013-03-19 13:35:00,
2013-03-19 09:40:00,27.5,17.6,29.95,NW,315,23.5,32.4,66,0.00,,,0.00,WUHU216HW,2013-03-19 13:40:00,
2013-03-19 10:00:00,27.7,17.8,29.97,NW,315,18.6,18.6,66,0.00,,,0.00,WUHU216HW,2013-03-19 14:00:00,
2013-03-19 10:05:00,27.7,18.2,29.97,WNW,293,13.9,18.6,67,0.00,,,0.00,WUHU216HW,2013-03-19 14:05:00,
2013-03-19 10:10:00,27.7,18.2,29.97,WNW,293,13.9,18.6,67,0.00,,,0.00,WUHU216HW,2013-03-19 14:10:00,
2013-03-19 10:30:00,28.1,17.8,29.98,WNW,293,20.8,20.8,65,0.00,,,0.00,WUHU216HW,2013-03-19 14:30:00,
2013-03-19 10:35:00,28.1,17.8,29.98,WNW,293,20.8,20.8,65,0.00,,,0.00,WUHU216HW,2013-03-19 14:35:00,
2013-03-19 10:40:00,28.1,17.8,29.98,WNW,293,20.8,20.8,65,0.00,,,0.00,WUHU216HW,2013-03-19 14:40:00,
2013-03-19 11:00:00,31.1,18.9,29.98,WSW,248,16.3,16.3,60,0.00,,,0.00,WUHU216HW,2013-03-19 15:00:00,
2013-03-19 11:05:00,31.1,18.9,29.98,WSW,248,18.3,18.3,60,0.00,,,0.00,WUHU216HW,2013-03-19 15:05:00,
2013-03-19 11:10:00,31.1,18.9,29.98,WSW,248,18.3,18.3,60,0.00,,,0.00,WUHU216HW,2013-03-19 15:10:00,
2013-03-19 11:30:00,32.0,18.1,29.98,WNW,293,19.7,19.7,56,0.00,,,0.00,WUHU216HW,2013-03-19 15:30:00,
2013-03-19 11:35:00,32.0,18.1,29.98,WSW,248,19.2,19.7,56,0.00,,,0.00,WUHU216HW,2013-03-19 15:35:00,
2013-03-19 11:40:00,32.0,18.1,29.98,WSW,248,19.2,19.7,56,0.00,,,0.00,WUHU216HW,2013-03-19 15:40:00,
2013-03-19 12:00:00,33.5,18.9,29.99,WNW,293,22.1,22.1,55,0.00,,,0.00,WUHU216HW,2013-03-19 16:00:00,
2013-03-19 12:05:00,33.5,18.9,29.99,West,270,16.8,22.1,55,0.00,,,0.00,WUHU216HW,2013-03-19 16:05:00,
2013-03-19 12:10:00,33.5,18.9,29.99,West,270,16.8,21.5,55,0.00,,,0.00,WUHU216HW,2013-03-19 16:10:00,
2013-03-19 12:30:00,33.7,20.0,30.00,West,270,17.4,17.4,57,0.00,,,0.00,WUHU216HW,2013-03-19 16:30:00,
2013-03-19 12:35:00,33.7,20.0,30.01,WNW,293,15.9,17.4,57,0.00,,,0.00,WUHU216HW,2013-03-19 16:35:00,
2013-03-19 12:40:00,33.7,20.0,30.01,WNW,293,15.9,17.4,57,0.00,,,0.00,WUHU216HW,2013-03-19 16:40:00,
2013-03-19 13:00:00,34.0,19.0,30.00,WNW,293,15.0,15.0,54,0.00,,,0.00,WUHU216HW,2013-03-19 17:00:00,
2013-03-19 13:05:00,34.2,19.6,30.00,WNW,293,15.0,15.0,55,0.00,,,0.00,WUHU216HW,2013-03-19 17:05:00,
2013-03-19 13:10:00,34.2,19.6,30.00,WNW,293,15.0,15.0,55,0.00,,,0.00,WUHU216HW,2013-03-19 17:10:00,
2013-03-19 13:30:00,34.9,20.8,30.03,WSW,248,21.0,21.0,56,0.00,,,0.00,WUHU216HW,2013-03-19 17:30:00,
2013-03-19 13:35:00,34.9,20.8,30.03,SSW,203,24.2,24.2,56,0.00,,,0.00,WUHU216HW,2013-03-19 17:35:00,
2013-03-19 13:40:00,34.9,20.8,30.03,SSW,203,24.2,24.2,56,0.00,,,0.00,WUHU216HW,2013-03-19 17:40:00,
2013-03-19 14:00:00,35.8,20.8,30.04,NW,315,18.6,18.6,54,0.00,,,0.00,WUHU216HW,2013-03-19 18:00:00,
2013-03-19 14:05:00,35.8,20.8,30.04,WNW,293,15.9,18.6,54,0.00,,,0.00,WUHU216HW,2013-03-19 18:05:00,
2013-03-19 14:10:00,35.8,20.8,30.04,WNW,293,15.9,15.9,54,0.00,,,0.00,WUHU216HW,2013-03-19 18:10:00,
2013-03-19 14:30:00,36.4,21.2,30.05,WNW,293,13.4,13.4,54,0.00,,,0.00,WUHU216HW,2013-03-19 18:30:00,
2013-03-19 14:35:00,36.2,21.2,30.05,NW,315,10.5,13.4,54,0.00,,,0.00,WUHU216HW,2013-03-19 18:35:00,
2013-03-19 14:40:00,36.2,21.2,30.05,NW,315,10.5,11.4,54,0.00,,,0.00,WUHU216HW,2013-03-19 18:40:00,
2013-03-19 15:00:00,37.1,22.0,30.04,SW,225,19.2,19.2,54,0.00,,,0.00,WUHU216HW,2013-03-19 19:00:00,
2013-03-19 15:05:00,37.3,22.1,30.04,SW,225,18.1,24.8,54,0.00,,,0.00,WUHU216HW,2013-03-19 19:05:00,
2013-03-19 15:10:00,37.3,22.1,30.04,SW,225,18.1,24.8,54,0.00,,,0.00,WUHU216HW,2013-03-19 19:10:00,
2013-03-19 15:30:00,38.3,21.8,30.04,SSW,203,22.4,22.4,51,0.00,,,0.00,WUHU216HW,2013-03-19 19:30:00,
2013-03-19 15:35:00,38.3,21.8,30.04,WNW,293,21.9,22.4,51,0.00,,,0.00,WUHU216HW,2013-03-19 19:35:00,
2013-03-19 15:40:00,38.3,21.8,30.04,WNW,293,21.9,21.9,51,0.00,,,0.00,WUHU216HW,2013-03-19 19:40:00,
2013-03-19 16:00:00,38.5,19.9,30.04,SW,225,15.4,15.4,47,0.00,,,0.00,WUHU216HW,2013-03-19 20:00:00,
2013-03-19 16:05:00,38.5,19.9,30.04,SW,225,15.4,15.4,47,0.00,,,0.00,WUHU216HW,2013-03-19 20:05:00,
2013-03-19 16:10:00,38.5,19.9,30.04,SW,225,15.4,15.4,47,0.00,,,0.00,WUHU216HW,2013-03-19 20:10:00,
2013-03-19 16:30:00,39.6,20.9,30.05,WNW,293,14.5,14.5,47,0.00,,,0.00,WUHU216HW,2013-03-19 20:30:00,
2013-03-19 16:35:00,39.8,21.6,30.05,WNW,293,14.5,14.5,48,0.00,,,0.00,WUHU216HW,2013-03-19 20:35:00,
2013-03-19 16:40:00,39.8,21.6,30.05,WNW,293,14.5,14.5,48,0.00,,,0.00,WUHU216HW,2013-03-19 20:40:00,
2013-03-19 17:00:00,40.0,19.6,30.05,WNW,293,15.0,15.0,44,0.00,,,0.00,WUHU216HW,2013-03-19 21:00:00,
2013-03-19 17:05:00,40.1,19.8,30.05,WNW,293,15.4,15.4,44,0.00,,,0.00,WUHU216HW,2013-03-19 21:05:00,
2013-03-19 17:10:00,40.1,19.8,30.05,WNW,293,15.4,15.4,44,0.00,,,0.00,WUHU216HW,2013-03-19 21:10:00,
2013-03-19 17:30:00,41.0,19.6,30.06,WSW,248,17.2,17.2,42,0.00,,,0.00,WUHU216HW,2013-03-19 21:30:00,
2013-03-19 17:35:00,41.0,19.6,30.06,NW,315,17.9,26.8,42,0.00,,,0.00,WUHU216HW,2013-03-19 21:35:00,
2013-03-19 17:40:00,41.0,19.6,30.06,NW,315,17.9,26.8,42,0.00,,,0.00,WUHU216HW,2013-03-19 21:40:00,
2013-03-19 18:00:00,40.9,20.0,30.06,NNW,338,20.1,20.1,43,0.00,,,0.00,WUHU216HW,2013-03-19 22:00:00,
2013-03-19 18:05:00,40.9,20.0,30.06,NW,315,13.0,20.1,43,0.00,,,0.00,WUHU216HW,2013-03-19 22:05:00,
2013-03-19 18:10:00,40.9,20.0,30.06,NW,315,13.0,20.1,43,0.00,,,0.00,WUHU216HW,2013-03-19 22:10:00,
2013-03-19 18:30:00,41.4,19.4,30.07,WNW,293,9.2,9.2,41,0.00,,,0.00,WUHU216HW,2013-03-19 22:30:00,
2013-03-19 18:35:00,41.4,19.9,30.07,NNW,338,9.2,9.2,42,0.00,,,0.00,WUHU216HW,2013-03-19 22:35:00,
2013-03-19 18:40:00,41.4,19.9,30.07,NNW,338,9.2,9.2,42,0.00,,,0.00,WUHU216HW,2013-03-19 22:40:00,
2013-03-19 19:00:00,40.9,18.4,30.07,WSW,248,16.6,16.6,40,0.00,,,0.00,WUHU216HW,2013-03-19 23:00:00,
2013-03-19 19:05:00,40.9,18.9,30.07,WSW,248,16.6,16.6,41,0.00,,,0.00,WUHU216HW,2013-03-19 23:05:00,
2013-03-19 19:10:00,40.9,18.9,30.07,WSW,248,16.6,16.6,41,0.00,,,0.00,WUHU216HW,2013-03-19 23:10:00,
2013-03-19 19:30:00,39.8,19.0,30.08,West,270,7.8,7.8,43,0.00,,,0.00,WUHU216HW,2013-03-19 23:30:00,
2013-03-19 19:35:00,39.8,19.0,30.08,SW,225,9.8,9.8,43,0.00,,,0.00,WUHU216HW,2013-03-19 23:35:00,
2013-03-19 19:40:00,39.8,19.0,30.08,SW,225,9.8,9.8,43,0.00,,,0.00,WUHU216HW,2013-03-19 23:40:00,
2013-03-19 20:00:00,38.9,18.2,30.08,WNW,293,4.7,4.7,43,0.00,,,0.00,WUHU216HW,2013-03-20 00:00:00,
2013-03-19 20:05:00,38.9,18.2,30.08,West,270,9.8,10.1,43,0.00,,,0.00,WUHU216HW,2013-03-20 00:05:00,
2013-03-19 20:10:00,38.9,18.2,30.08,West,270,9.8,10.1,43,0.00,,,0.00,WUHU216HW,2013-03-20 00:10:00,
2013-03-19 20:30:00,38.0,17.9,30.09,WSW,248,8.5,8.5,44,0.00,,,0.00,WUHU216HW,2013-03-20 00:30:00,
2013-03-19 20:35:00,38.0,18.4,30.09,WSW,248,9.8,9.8,45,0.00,,,0.00,WUHU216HW,2013-03-20 00:35:00,
2013-03-19 20:40:00,38.0,18.4,30.09,WSW,248,9.8,9.8,45,0.00,,,0.00,WUHU216HW,2013-03-20 00:40:00,
2013-03-19 21:00:00,37.4,18.5,30.10,West,270,9.2,9.2,46,0.00,,,0.00,WUHU216HW,2013-03-20 01:00:00,
2013-03-19 21:05:00,37.4,18.5,30.10,West,270,12.8,12.8,46,0.00,,,0.00,WUHU216HW,2013-03-20 01:05:00,
2013-03-19 21:10:00,37.4,18.5,30.10,West,270,12.8,12.8,46,0.00,,,0.00,WUHU216HW,2013-03-20 01:10:00,
2013-03-19 21:30:00,36.5,18.6,30.10,NW,315,7.6,7.6,48,0.00,,,0.00,WUHU216HW,2013-03-20 01:30:00,
2013-03-19 21:35:00,36.7,18.8,30.11,WNW,293,6.5,7.6,48,0.00,,,0.00,WUHU216HW,2013-03-20 01:35:00,
2013-03-19 21:40:00,36.7,18.8,30.11,WNW,293,6.5,7.6,48,0.00,,,0.00,WUHU216HW,2013-03-20 01:40:00,
2013-03-19 22:00:00,36.0,19.3,30.10,WNW,293,7.4,7.4,50,0.00,,,0.00,WUHU216HW,2013-03-20 02:00:00,
2013-03-19 22:05:00,36.0,18.7,30.10,WNW,293,7.4,7.4,49,0.00,,,0.00,WUHU216HW,2013-03-20 02:05:00,
2013-03-19 22:10:00,36.0,18.7,30.10,WNW,293,7.4,7.4,49,0.00,,,0.00,WUHU216HW,2013-03-20 02:10:00,
2013-03-19 22:30:00,35.3,19.5,30.10,WNW,293,6.3,6.3,52,0.00,,,0.00,WUHU216HW,2013-03-20 02:30:00,
2013-03-19 22:35:00,35.3,19.5,30.10,WNW,293,6.0,6.3,52,0.00,,,0.00,WUHU216HW,2013-03-20 02:35:00,
2013-03-19 22:40:00,35.3,19.5,30.10,WNW,293,6.0,6.0,52,0.00,,,0.00,WUHU216HW,2013-03-20 02:40:00,
2013-03-19 23:00:00,34.7,19.3,30.10,WSW,248,11.6,11.6,53,0.00,,,0.00,WUHU216HW,2013-03-20 03:00:00,
2013-03-19 23:05:00,34.7,19.3,30.10,SW,225,5.6,11.6,53,0.00,,,0.00,WUHU216HW,2013-03-20 03:05:00,
2013-03-19 23:10:00,34.7,19.3,30.10,SW,225,5.6,10.3,53,0.00,,,0.00,WUHU216HW,2013-03-20 03:10:00,
2013-03-19 23:30:00,34.2,20.1,30.10,WSW,248,12.8,12.8,56,0.00,,,0.00,WUHU216HW,2013-03-20 03:30:00,
2013-03-19 23:35:00,34.2,20.1,30.10,WSW,248,7.8,12.8,56,0.00,,,0.00,WUHU216HW,2013-03-20 03:35:00,
2013-03-19 23:40:00,34.2,20.1,30.10,WSW,248,7.8,12.8,56,0.00,,,0.00,WUHU216HW,2013-03-20 03:40:00,